Location: ??????
(41.3747°N, 22.5491°E)
Time: 15:10:59
(UTC+00:00)

SL-24 R/B - Pass Details

Date: 01 December 2020
Orbit: 505 x 1003 km, 97.4° (Epoch: 20 January)

Event Time Altitude Azimuth Distance (km) Brightness Sun altitude
Exits shadow 16:09:39 16° 43° (NE) 1,399 5.4 -12.6°
Maximum altitude 16:11:58 30° 96° (E) 930 4.5 -13.0°
Drops below altitude 10° 16:15:12 10° 160° (SSE) 1,711 6.3 -13.6°
Sets 16:17:26 0° 171° (S) 2,598 7.4 -14.0°
